Terug naar catalogus

KUIPER-00071

ActiefCommunicatieLEO
NORAD 64818·PAYLOAD·🇺🇸 United States

Gelanceerd Jul 16, 2025 vanaf Cape Canaveral Space Force Station

Loading…

Volgende Passages (komende 24 uur)

TLE

VersSource: CelesTrak SupGP

Epoch: Sep 14, 2026, 17:37 UTC

1 64818C 25151C   26257.73450232  .00005017  00000+0  65672-3 0  2577
2 64818  51.9000 187.1439 0000746  93.3128 239.4783 14.79923159    17

Volg KUIPER-00071 in realtime met AllMySat

Download on the App Store